loading
|

THOR ABLESTAR DEB, 1608

Orbit data source: Space-Track

THOR ABLESTAR DEB, 1608 is space debris in LEO originally from a launch on Sun, 13 Dec 1964 UTC launched from the Air Force Western Test Range (AFWTR). Debris objects in space refer to the collection of defunct objects orbiting the Earth. Examples of debris include non-operational satellites, rocket bodies, and fragments generated from explosions, collisions, or faulty payload assembly.

Loading next visibility...
Next conjunction unknown
Loading greatness...
THOR ABLESTAR DEB details
Identifier
1608, 1964-083H
Orbit
LEO
Last TLE update21 hours ago
Origin
Flag of USUSN BuWeps (US)
ManufacturerUnknown
MissionSpacecraft
Bus & MotorUnknown bus, Unknown motor
MassUnknown
Launch date (UTC)
1964-12-13 (60 years ago)
Launch vehicleUnknown
Launch site
Air Force Western Test Range (AFWTR)
Object type
Payload
Rocket body
Debris
Shape & HBRUnknown
Radar Cross SectionSmall (<0.1 m²)

Expand to show TLE details & history

TLE from 21 hours ago
0 THOR ABLESTAR DEB
1 01608U 64083H   24287.72849718  .00003205  00000-0  28443-2 0  9998
2 01608  89.7542  82.1541 0018688 178.7770 244.5962 13.84554403990299
Epoch: 2024-10-13T17:29Z
Definitive object data (Epoch: 2024-10-13T17:29:02.156Z)
Latitude63.26532°
Longitude157.61475°
Altitude964.646 km
Speed7.372 km/s
True Right ascension05h 30m 33s
True Declination63° 07' 51"
Sunlit
Object was in daylight at TLE epoch
Predictive object data (real-time)
Latitude68.17489°
Longitude-23.50433°
Altitude953.667 km
Speed7.384 km/s
Apparent Right ascension19h 49m 38s
Apparent Declination21° 37' 29"
Sunlit
Object is in daylight
Predictive observer data (real-time)
Local Sidereal Time09:05:59
Azimuth19.757° NNE
Elevation-25.934°
Doppler factor1
Orbital elements
Apogee958.462 km
Perigee931.092 km
Semi-major axis7,322.914 km
Eccentricity0.0018688
Inclination89.7542°
RAAN82.1541°
Arg. of periapsis178.777°
True anomaly244.40295°
Mean anomaly244.5962°
Eccentric anomaly244.49956°
Mean motion3.46352 °/min
BSTAR0.0028443
Period103.94 mins
No data available

THOR ABLESTAR DEB Visibility forecast

Observer location: 39.9160978°, -105.1181434

Span
Click to sort rows by Start time (UTC) header in descending order
Start Az.
Max El. time (UTC)
Max El. Az.
Max El.
End time (UTC)
End Az.
8 mins2024-10-14 21:31:56.415Z34.379° NE2024-10-14 21:35:56.415Z78.345° E19.654°2024-10-14 21:39:56.415Z124.12° SE
10 mins2024-10-14 23:15:56.415Z347.39° N2024-10-14 23:19:56.415Z289.338° WNW38.289°2024-10-14 23:25:56.415Z202.791° SW
4 mins2024-10-15 09:14:56.415Z91.807° ESE2024-10-15 09:16:56.415Z70.41° E14.185°2024-10-15 09:18:56.415Z49.249° ENE
11 mins2024-10-15 10:54:56.415Z182.718° SSW2024-10-15 10:59:56.415Z271.099° WNW44.393°2024-10-15 11:05:56.415Z355.452° N